Wind_Speed
40 40 40 41 40 41 41 41 41 41 41 41 41 41 41 41 41 41 42 42 42 42 42 43 43 43 43 44 44 44 45 45 45 45 45 46 47 47 47 47 46 46 46
41 41 41 41 41 41 41 42 41 41 42 41 41 41 41 41 42 42 42 42 43 43 44 44 44 44 44 45 45 45 46 46 47 46 46 47 47 47 47 47 47 47 47
41 41 42 42 42 42 42 42 41 42 42 42 42 42 42 42 42 43 43 43 43 44 45 45 45 45 46 46 46 47 47 48 48 48 47 48 48 48 48 48 48 47 47
41 42 42 42 43 43 42 42 41 41 42 42 43 43 43 43 44 44 44 44 45 45 45 46 46 46 46 47 47 48 49 49 48 48 48 48 48 47 48 48 48 48 49
42 42 43 43 44 44 44 43 43 43 43 43 43 44 44 44 44 44 45 45 45 46 46 46 47 47 47 48 49 49 49 49 49 49 49 48 48 48 48 49 49 50 50
43 43 43 44 44 44 43 44 44 44 44 44 44 45 45 45 46 46 46 46 46 47 47 48 48 48 48 49 49 50 50 50 50 50 50 50 49 50 50 51 51 52 51
44 44 44 44 44 44 44 44 45 45 45 45 46 47 47 47 47 47 47 47 47 47 48 48 48 48 49 50 50 50 50 51 50 50 50 50 50 51 52 52 53 53 52
45 45 45 45 45 45 45 46 46 47 47 47 47 48 48 48 48 49 49 50 50 49 49 49 49 49 49 49 50 50 50 50 50 50 50 50 51 51 52 52 53 53 53
47 47 47 47 47 47 47 47 47 47 48 49 48 49 49 49 49 50 50 51 51 51 51 51 50 50 49 49 50 49 49 49 50 51 51 51 51 51 51 52 53 53 53
49 49 48 48 48 48 48 49 48 48 48 48 48 49 50 50 50 51 51 51 51 51 52 52 51 50 50 50 50 49 49 49 49 50 50 50 50 51 52 53 53 53 54
50 50 49 49 49 49 49 49 49 49 49 48 48 49 49 50 50 51 51 51 52 52 52 52 52 51 50 50 50 50 50 50 50 50 50 51 51 51 52 52 53 54 54
50 50 50 50 50 50 50 49 49 49 49 49 49 49 49 49 49 50 50 50 51 51 51 52 51 50 50 51 51 51 51 51 51 51 51 51 51 52 52 53 53 54 55
49 49 49 50 51 50 50 50 49 49 50 50 50 49 49 49 49 49 50 50 50 50 50 50 50 51 50 51 51 52 53 53 52 52 51 51 52 52 53 53 54 54 55
49 49 49 50 50 50 50 50 49 49 50 50 50 50 50 50 50 50 50 50 50 50 50 50 50 50 50 51 51 52 53 53 53 53 53 53 53 53 53 53 54 54 54
48 48 48 49 49 50 50 50 50 50 51 51 51 51 51 51 50 50 51 51 50 50 50 51 51 51 51 51 51 52 52 52 53 53 52 52 52 53 53 53 53 53 53
49 49 49 50 50 50 50 50 51 51 51 51 51 51 51 51 51 51 52 52 52 52 52 51 51 50 50 51 51 51 51 51 51 51 51 51 51 51 51 51 50 50 50
49 49 49 50 50 49 49 50 50 51 51 51 51 51 51 51 51 52 52 53 53 53 52 52 51 51 51 51 51 50 50 50 50 50 50 50 50 50 50 49 49 49 49
49 49 49 49 50 50 50 50 50 51 51 51 51 52 52 52 53 53 53 53 53 53 52 52 52 52 51 51 51 50 50 50 49 49 49 49 48 48 48 48 48 48 48
48 48 48 49 49 49 50 50 50 51 51 51 51 52 53 53 54 54 54 54 53 53 53 53 52 52 51 51 50 50 50 49 49 48 48 47 47 47 47 47 47 47 46
47 48 48 48 48 49 49 50 51 51 51 51 51 52 52 53 52 53 53 53 53 52 52 52 52 51 51 51 51 50 49 49 48 47 47 47 47 47 47 46 46 46 45
44 45 47 47 48 48 49 50 51 51 51 51 51 52 52 52 51 51 51 52 51 51 51 51 51 51 50 50 50 49 49 48 48 48 48 47 47 47 46 46 45 45 44
42 43 45 46 47 47 48 48 49 49 50 50 50 50 50 50 49 49 49 50 50 50 50 49 49 49 49 48 48 48 48 48 48 48 47 47 46 45 45 45 44 43 42
42 42 43 44 45 45 46 46 47 47 47 47 48 48 48 48 47 47 47 48 48 48 48 48 48 48 47 47 46 46 47 47 46 46 45 45 44 44 43 43 42 41 40
41 41 42 42 42 43 44 44 44 44 44 44 44 44 44 44 45 45 45 46 46 46 46 47 46 46 46 45 45 44 44 44 44 43 43 42 42 42 41 41 41 40 39
41 41 41 41 41 41 42 42 42 41 41 41 41 41 42 42 43 43 43 43 43 44 44 44 44 44 43 43 43 42 42 41 41 41 41 40 40 40 40 39 39 38 38
40 40 40 40 39 39 39 40 40 40 40 40 39 39 40 40 41 41 41 41 42 42 42 42 42 42 42 42 42 41 41 40 40 40 39 39 38 38 38 38 37 37 36
Wind_Direction
262 262 262 262 262 263 263 264 265 265 266 267 266 267 267 267 267 267 267 267 267 267 269 269 270 271 272 272 272 273 273 274 275 274 275 275 276 278 278 278 278 278 278
260 261 262 263 263 263 263 263 264 265 266 267 267 267 267 268 268 268 268 268 268 268 269 270 270 271 271 272 273 273 273 274 275 274 275 275 276 276 276 276 277 276 277
260 261 261 262 263 264 264 264 265 266 267 267 267 267 267 268 269 269 269 269 270 270 270 270 270 271 271 272 272 273 274 275 275 275 275 276 276 276 276 276 276 276 276
260 261 262 262 263 264 265 265 267 268 267 266 266 266 267 267 269 270 270 271 271 271 271 271 271 271 272 273 273 274 274 275 275 276 276 276 276 276 276 276 276 275 276
261 261 262 263 263 264 265 265 266 267 268 267 267 266 266 267 268 269 270 271 271 272 272 272 272 272 272 273 273 274 274 274 274 275 275 276 276 275 276 276 275 275 275
262 262 263 264 263 264 265 265 265 266 267 267 267 267 268 269 269 269 270 271 272 273 273 272 272 272 272 273 273 274 274 274 275 275 276 276 276 275 276 275 275 275 275
261 262 263 264 265 264 265 266 266 266 267 268 267 268 268 269 270 270 270 270 271 274 274 273 273 274 273 274 273 274 274 275 275 275 276 276 275 275 276 276 276 276 276
261 262 264 265 266 266 266 266 267 267 267 267 268 268 268 268 269 269 270 271 272 273 274 274 274 274 274 273 274 274 275 274 275 275 275 275 275 276 276 276 277 277 276
262 263 264 265 265 266 266 267 267 268 268 268 268 268 268 268 269 269 270 271 272 273 274 274 274 274 273 273 274 274 275 275 274 274 275 276 275 276 276 276 277 278 277
263 264 264 265 265 266 266 267 268 268 269 269 269 268 268 268 269 269 270 271 272 273 273 273 274 273 273 273 274 275 275 275 276 276 275 275 276 276 277 277 278 278 277
263 263 264 265 266 267 267 267 267 268 268 268 268 268 268 268 269 270 270 270 271 273 273 273 274 273 272 273 274 274 275 276 276 276 276 276 276 277 277 278 278 278 278
263 262 263 264 265 266 266 267 267 267 268 268 268 269 269 269 270 271 271 272 273 274 273 273 273 273 273 273 273 273 274 275 275 276 276 277 277 278 278 278 278 279 279
263 263 263 264 265 266 266 266 267 267 268 268 268 269 270 270 271 271 271 272 273 274 274 274 274 274 274 274 274 274 275 276 276 277 277 278 279 279 278 278 279 279 279
265 265 265 266 266 266 265 266 267 268 268 269 269 269 270 271 272 272 272 272 272 273 274 274 273 274 275 276 276 276 277 277 277 277 277 278 278 279 279 279 279 280 280
266 266 266 267 268 267 267 267 268 269 269 269 270 270 271 271 272 272 272 272 273 273 274 274 274 274 275 276 276 277 277 277 277 277 277 277 278 279 280 281 281 281 281
267 267 267 268 268 268 268 269 269 269 270 270 270 270 271 271 271 272 272 273 273 274 274 274 275 275 275 276 276 276 276 276 276 277 277 278 279 280 281 281 281 281 281
268 268 268 268 269 268 268 269 269 270 271 271 271 271 271 271 271 272 272 273 273 274 274 275 275 275 275 275 275 275 276 276 276 277 278 279 279 280 280 280 280 280 281
269 269 269 269 269 269 269 269 270 270 271 272 272 272 272 272 272 273 273 274 274 274 274 274 274 275 275 275 275 275 275 276 276 277 278 279 279 280 280 280 281 281 281
270 270 270 270 270 270 270 270 271 271 271 272 273 273 274 274 274 274 274 274 274 274 273 274 274 274 274 274 274 274 275 276 276 276 277 278 279 279 280 280 281 282 282
271 271 271 271 271 271 271 271 272 272 272 273 273 274 275 275 275 275 275 275 274 274 274 274 273 273 273 273 274 274 274 275 275 275 276 277 278 278 279 280 280 281 282
273 272 272 272 272 272 273 273 273 273 273 273 274 275 275 275 275 275 275 275 275 275 274 274 274 274 274 274 274 273 273 274 274 275 276 277 277 278 278 279 280 281 281
274 274 274 274 273 273 274 274 274 274 274 274 275 275 275 275 275 275 275 275 275 275 275 274 274 274 274 274 273 273 273 273 274 275 275 275 276 277 277 279 279 280 280
277 276 276 276 275 275 275 275 276 276 276 276 276 276 275 275 275 275 275 275 275 274 274 274 274 274 274 273 273 273 273 273 273 273 274 274 275 275 277 277 278 278 278
279 279 278 277 276 276 276 276 276 277 277 277 277 277 276 275 275 275 275 275 274 274 274 274 273 273 272 272 273 273 273 273 273 273 273 273 273 274 275 275 276 276 276
280 280 279 278 278 277 277 276 276 277 277 278 278 278 277 277 276 276 276 275 274 274 274 273 273 272 272 272 272 272 272 272 272 272 273 272 273 273 273 274 275 275 275
281 280 279 278 278 278 278 278 278 277 277 278 279 279 278 278 277 277 276 276 275 274 274 273 272 272 272 271 271 271 271 272 272 272 272 272 272 272 272 273 274 275 275
Height
5633 5634 5635 5636 5637 5638 5639 5640 5640 5641 5641 5642 5642 5642 5642 5643 5643 5643 5643 5643 5643 5644 5644 5644 5644 5644 5644 5643 5643 5643 5642 5642 5642 5643 5642 5641 5640 5639 5637 5636 5635 5635 5634
5623 5624 5625 5626 5627 5628 5628 5629 5629 5630 5631 5631 5631 5631 5632 5632 5632 5632 5632 5632 5632 5633 5632 5632 5632 5632 5632 5631 5631 5631 5630 5629 5629 5630 5629 5628 5627 5626 5625 5624 5623 5622 5622
5611 5613 5614 5615 5616 5616 5617 5618 5618 5619 5619 5620 5620 5621 5621 5621 5621 5621 5621 5621 5621 5620 5620 5620 5620 5619 5619 5619 5618 5618 5617 5616 5616 5616 5616 5615 5614 5613 5612 5611 5610 5609 5609
5600 5601 5602 5604 5604 5605 5606 5606 5607 5608 5608 5608 5609 5609 5610 5610 5610 5609 5609 5609 5609 5608 5608 5607 5607 5606 5606 5606 5605 5605 5604 5603 5602 5602 5602 5601 5601 5599 5598 5598 5597 5596 5595
5588 5590 5590 5591 5592 5593 5594 5594 5595 5596 5596 5597 5597 5597 5597 5597 5597 5597 5597 5597 5596 5596 5595 5594 5594 5593 5593 5592 5592 5591 5590 5589 5588 5588 5588 5587 5587 5586 5585 5584 5583 5582 5581
5576 5577 5578 5579 5580 5581 5581 5582 5583 5583 5584 5584 5584 5585 5585 5585 5585 5584 5584 5584 5583 5582 5582 5581 5581 5580 5579 5578 5578 5577 5576 5575 5574 5574 5573 5573 5572 5571 5570 5568 5567 5567 5567
5564 5565 5566 5567 5568 5568 5569 5569 5570 5570 5571 5571 5571 5572 5572 5572 5571 5571 5571 5570 5570 5569 5569 5568 5567 5566 5565 5564 5563 5562 5562 5560 5560 5559 5558 5558 5557 5556 5554 5553 5552 5550 5550
5551 5552 5553 5554 5555 5556 5556 5557 5557 5557 5557 5558 5558 5558 5558 5558 5558 5558 5557 5557 5556 5556 5555 5554 5553 5552 5551 5550 5549 5548 5547 5546 5545 5544 5543 5542 5540 5539 5537 5536 5535 5534 5534
5538 5539 5540 5541 5542 5542 5542 5543 5543 5543 5544 5544 5544 5544 5544 5544 5543 5543 5542 5542 5542 5541 5541 5539 5538 5538 5537 5535 5534 5534 5533 5532 5530 5528 5527 5526 5524 5523 5521 5520 5518 5517 5517
5523 5525 5526 5526 5527 5528 5528 5528 5529 5529 5529 5529 5529 5529 5529 5529 5529 5528 5528 5528 5527 5527 5526 5525 5523 5522 5521 5520 5519 5518 5517 5516 5514 5513 5511 5510 5509 5507 5505 5503 5502 5500 5499
5509 5510 5511 5512 5512 5513 5513 5514 5514 5514 5515 5515 5515 5515 5514 5514 5513 5513 5512 5512 5512 5511 5510 5510 5508 5507 5506 5505 5504 5503 5501 5500 5499 5498 5496 5495 5493 5491 5489 5487 5485 5483 5482
5493 5494 5495 5496 5497 5497 5498 5499 5499 5499 5500 5500 5500 5500 5499 5499 5498 5498 5497 5496 5496 5496 5495 5494 5493 5492 5490 5489 5488 5487 5486 5484 5483 5482 5481 5479 5478 5476 5474 5472 5469 5467 5465
5478 5479 5480 5481 5482 5482 5483 5484 5484 5484 5485 5485 5485 5485 5484 5484 5483 5482 5482 5481 5481 5480 5480 5478 5477 5476 5475 5474 5473 5471 5470 5468 5467 5466 5465 5464 5462 5460 5457 5455 5453 5451 5449
5464 5465 5466 5466 5467 5467 5468 5468 5469 5469 5469 5469 5469 5470 5469 5469 5468 5467 5467 5466 5465 5465 5464 5463 5462 5461 5460 5458 5457 5455 5454 5452 5450 5449 5448 5447 5445 5443 5441 5438 5436 5434 5433
5450 5450 5451 5451 5451 5452 5452 5453 5453 5453 5453 5454 5454 5454 5454 5453 5452 5451 5451 5450 5449 5449 5448 5447 5447 5445 5444 5442 5441 5439 5438 5436 5434 5433 5431 5430 5428 5427 5424 5422 5420 5417 5416
5435 5435 5436 5436 5436 5437 5437 5437 5437 5437 5437 5436 5437 5437 5437 5436 5436 5435 5434 5433 5433 5432 5431 5431 5430 5429 5427 5426 5424 5423 5421 5420 5418 5416 5415 5414 5412 5410 5408 5406 5404 5402 5400
5420 5420 5420 5421 5421 5421 5421 5421 5421 5421 5421 5420 5420 5420 5419 5419 5419 5418 5417 5417 5416 5415 5415 5414 5413 5412 5410 5409 5408 5406 5405 5404 5402 5401 5399 5398 5396 5394 5393 5391 5389 5387 5385
5405 5405 5405 5405 5405 5405 5405 5405 5405 5405 5405 5404 5403 5403 5402 5402 5402 5401 5400 5400 5400 5398 5397 5397 5396 5395 5393 5392 5391 5390 5389 5387 5386 5385 5384 5382 5381 5379 5377 5376 5374 5372 5370
5390 5390 5389 5389 5389 5389 5389 5389 5389 5389 5389 5388 5387 5386 5385 5385 5384 5383 5382 5382 5382 5381 5380 5379 5378 5377 5376 5375 5374 5373 5372 5371 5370 5369 5368 5367 5365 5364 5362 5361 5359 5357 5356
5374 5374 5374 5373 5373 5373 5372 5372 5372 5372 5371 5371 5370 5369 5368 5368 5367 5366 5365 5364 5364 5363 5363 5362 5361 5360 5360 5359 5358 5357 5356 5355 5355 5354 5353 5352 5350 5349 5348 5346 5344 5343 5341
5359 5359 5358 5358 5357 5357 5356 5356 5355 5354 5354 5354 5353 5352 5351 5351 5350 5349 5348 5347 5346 5346 5345 5345 5344 5343 5343 5342 5341 5340 5340 5339 5339 5338 5337 5336 5335 5334 5333 5331 5330 5328 5326
5345 5344 5343 5342 5341 5341 5340 5339 5338 5337 5337 5336 5335 5334 5333 5332 5332 5332 5331 5330 5329 5329 5328 5328 5327 5327 5326 5325 5325 5324 5324 5323 5323 5322 5322 5321 5320 5319 5318 5317 5315 5314 5312
5331 5330 5329 5327 5326 5325 5324 5323 5322 5321 5320 5319 5318 5318 5316 5316 5315 5315 5314 5314 5313 5312 5312 5311 5311 5310 5309 5309 5309 5308 5308 5307 5307 5306 5306 5305 5305 5304 5304 5303 5301 5300 5298
5317 5316 5314 5313 5311 5310 5309 5308 5307 5305 5304 5303 5303 5301 5300 5300 5299 5299 5298 5297 5297 5296 5295 5295 5294 5294 5294 5293 5293 5293 5292 5292 5291 5291 5291 5290 5290 5290 5289 5288 5288 5286 5285
5303 5301 5300 5298 5297 5296 5294 5293 5292 5291 5290 5289 5288 5287 5285 5284 5284 5283 5282 5281 5281 5280 5279 5279 5279 5279 5278 5278 5278 5278 5277 5277 5277 5276 5276 5276 5276 5275 5275 5275 5274 5273 5272
5289 5287 5286 5284 5283 5282 5280 5279 5278 5277 5276 5275 5273 5272 5271 5270 5269 5268 5267 5266 5265 5265 5264 5264 5263 5263 5263 5263 5263 5263 5263 5263 5263 5263 5263 5262 5262 5262 5262 5261 5261 5260 5260